Time,TemperatureF,DewpointF,PressureIn,WindDirection,WindDirectionDegrees,WindSpeedMPH,WindSpeedGustMPH,Humidity,HourlyPrecipIn,Conditions,Clouds,dailyrainin,SoftwareType,DateUTC
2013-03-27 00:00:00,47.0,35.0,30.17,NW,314,1.0,2.0,62,0.00,,,0.00,Meteo,2013-03-27 04:00:00,
2013-03-27 00:01:00,47.0,35.0,30.17,North,0,0.0,0.0,62,0.00,,,0.00,Meteo,2013-03-27 04:01:00,
2013-03-27 00:05:00,46.0,34.0,30.17,NNW,327,2.0,6.0,63,0.00,,,0.00,Meteo,2013-03-27 04:05:00,
2013-03-27 00:10:00,46.0,34.0,30.17,NW,315,1.0,3.0,63,0.00,,,0.00,Meteo,2013-03-27 04:10:00,
2013-03-27 00:16:00,46.0,34.0,30.17,NNW,345,1.0,2.0,62,0.00,,,0.00,Meteo,2013-03-27 04:16:00,
2013-03-27 00:21:00,46.0,34.0,30.17,NW,317,0.0,2.0,62,0.00,,,0.00,Meteo,2013-03-27 04:21:00,
2013-03-27 00:26:00,46.0,34.0,30.17,NW,320,2.0,5.0,62,0.00,,,0.00,Meteo,2013-03-27 04:26:00,
2013-03-27 00:31:00,46.0,34.0,30.18,NNW,331,2.0,3.0,62,0.00,,,0.00,Meteo,2013-03-27 04:31:00,
2013-03-27 00:36:00,46.0,34.0,30.18,WNW,296,1.0,3.0,63,0.00,,,0.00,Meteo,2013-03-27 04:36:00,
2013-03-27 00:41:00,46.0,34.0,30.18,NNW,345,1.0,2.0,63,0.00,,,0.00,Meteo,2013-03-27 04:41:00,
2013-03-27 00:46:00,46.0,34.0,30.18,NNW,339,2.0,5.0,63,0.00,,,0.00,Meteo,2013-03-27 04:46:00,
2013-03-27 00:51:00,46.0,34.0,30.18,NW,316,2.0,5.0,63,0.00,,,0.00,Meteo,2013-03-27 04:51:00,
2013-03-27 00:56:00,46.0,35.0,30.18,NNW,344,0.0,2.0,64,0.00,,,0.00,Meteo,2013-03-27 04:56:00,
2013-03-27 01:01:00,46.0,35.0,30.18,North,0,0.0,0.0,64,0.00,,,0.00,Meteo,2013-03-27 05:01:00,
2013-03-27 01:06:00,45.0,34.0,30.18,NW,311,1.0,2.0,65,0.00,,,0.00,Meteo,2013-03-27 05:06:00,
2013-03-27 01:11:00,45.0,34.0,30.18,NW,305,1.0,3.0,65,0.00,,,0.00,Meteo,2013-03-27 05:11:00,
2013-03-27 01:16:00,45.0,34.0,30.18,NNW,331,1.0,2.0,65,0.00,,,0.00,Meteo,2013-03-27 05:16:00,
2013-03-27 01:21:00,45.0,34.0,30.18,NNW,340,0.0,3.0,65,0.00,,,0.00,Meteo,2013-03-27 05:21:00,
2013-03-27 01:26:00,45.0,34.0,30.18,NNW,341,0.0,2.0,65,0.00,,,0.00,Meteo,2013-03-27 05:26:00,
2013-03-27 01:31:00,45.0,34.0,30.17,North,0,0.0,0.0,66,0.00,,,0.00,Meteo,2013-03-27 05:31:00,
2013-03-27 01:36:00,44.0,33.0,30.17,NNW,340,0.0,1.0,66,0.00,,,0.00,Meteo,2013-03-27 05:36:00,
2013-03-27 01:41:00,44.0,34.0,30.17,NNW,347,2.0,4.0,67,0.00,,,0.00,Meteo,2013-03-27 05:41:00,
2013-03-27 01:46:00,44.0,34.0,30.17,NNW,343,0.0,2.0,67,0.00,,,0.00,Meteo,2013-03-27 05:46:00,
2013-03-27 01:51:00,44.0,34.0,30.17,NNW,345,2.0,5.0,67,0.00,,,0.00,Meteo,2013-03-27 05:51:00,
2013-03-27 01:56:00,44.0,33.0,30.17,NNW,345,1.0,3.0,66,0.00,,,0.00,Meteo,2013-03-27 05:56:00,
2013-03-27 02:02:00,44.0,33.0,30.17,NNW,347,2.0,3.0,65,0.00,,,0.00,Meteo,2013-03-27 06:02:00,
2013-03-27 02:07:00,44.0,32.0,30.17,NNW,340,2.0,3.0,63,0.00,,,0.00,Meteo,2013-03-27 06:07:00,
2013-03-27 02:13:00,44.0,31.0,30.17,North,352,3.0,6.0,61,0.00,,,0.00,Meteo,2013-03-27 06:13:00,
2013-03-27 02:18:00,45.0,32.0,30.17,NNW,344,1.0,3.0,60,0.00,,,0.00,Meteo,2013-03-27 06:18:00,
2013-03-27 02:23:00,45.0,32.0,30.17,NNW,347,4.0,6.0,60,0.00,,,0.00,Meteo,2013-03-27 06:23:00,
2013-03-27 02:28:00,45.0,32.0,30.17,North,349,3.0,5.0,60,0.00,,,0.00,Meteo,2013-03-27 06:28:00,
2013-03-27 02:33:00,45.0,32.0,30.17,NNW,348,3.0,5.0,59,0.00,,,0.00,Meteo,2013-03-27 06:33:00,
2013-03-27 02:38:00,45.0,32.0,30.17,NNW,342,3.0,6.0,59,0.00,,,0.00,Meteo,2013-03-27 06:38:00,
2013-03-27 02:43:00,45.0,32.0,30.17,NNW,345,3.0,5.0,59,0.00,,,0.00,Meteo,2013-03-27 06:43:00,
2013-03-27 02:48:00,45.0,32.0,30.16,North,0,0.0,0.0,59,0.00,,,0.00,Meteo,2013-03-27 06:48:00,
2013-03-27 02:53:00,44.0,32.0,30.16,NNW,348,1.0,2.0,62,0.00,,,0.00,Meteo,2013-03-27 06:53:00,
2013-03-27 02:58:00,44.0,31.0,30.16,NNW,348,3.0,6.0,61,0.00,,,0.00,Meteo,2013-03-27 06:58:00,
2013-03-27 03:03:00,44.0,31.0,30.17,NNW,331,1.0,2.0,61,0.00,,,0.00,Meteo,2013-03-27 07:03:00,
2013-03-27 03:08:00,44.0,32.0,30.17,North,349,1.0,2.0,62,0.00,,,0.00,Meteo,2013-03-27 07:08:00,
2013-03-27 03:13:00,44.0,32.0,30.17,NNW,345,2.0,3.0,62,0.00,,,0.00,Meteo,2013-03-27 07:13:00,
2013-03-27 03:18:00,44.0,32.0,30.17,NNW,344,1.0,2.0,62,0.00,,,0.00,Meteo,2013-03-27 07:18:00,
2013-03-27 03:23:00,43.0,31.0,30.17,NNW,345,1.0,3.0,63,0.00,,,0.00,Meteo,2013-03-27 07:23:00,
2013-03-27 03:28:00,43.0,32.0,30.17,NNW,343,2.0,3.0,64,0.00,,,0.00,Meteo,2013-03-27 07:28:00,
2013-03-27 03:34:00,43.0,32.0,30.16,North,353,3.0,5.0,66,0.00,,,0.00,Meteo,2013-03-27 07:34:00,
2013-03-27 03:39:00,43.0,33.0,30.16,North,352,2.0,3.0,67,0.00,,,0.00,Meteo,2013-03-27 07:39:00,
2013-03-27 03:44:00,42.0,32.0,30.16,North,350,2.0,3.0,67,0.00,,,0.00,Meteo,2013-03-27 07:44:00,
2013-03-27 03:50:00,42.0,32.0,30.16,North,352,3.0,5.0,67,0.00,,,0.00,Meteo,2013-03-27 07:50:00,
2013-03-27 03:55:00,42.0,32.0,30.16,NNW,346,4.0,8.0,67,0.00,,,0.00,Meteo,2013-03-27 07:55:00,
2013-03-27 04:00:00,42.0,32.0,30.15,North,353,3.0,6.0,67,0.00,,,0.00,Meteo,2013-03-27 08:00:00,
2013-03-27 04:05:00,42.0,32.0,30.15,NNW,346,2.0,5.0,67,0.00,,,0.00,Meteo,2013-03-27 08:05:00,
2013-03-27 04:10:00,42.0,32.0,30.15,North,356,0.0,1.0,67,0.00,,,0.00,Meteo,2013-03-27 08:10:00,
2013-03-27 04:15:00,42.0,32.0,30.15,North,352,2.0,4.0,68,0.00,,,0.00,Meteo,2013-03-27 08:15:00,
2013-03-27 04:20:00,42.0,33.0,30.15,North,349,3.0,5.0,69,0.00,,,0.00,Meteo,2013-03-27 08:20:00,
2013-03-27 04:25:00,42.0,33.0,30.15,NW,323,0.0,2.0,69,0.00,,,0.00,Meteo,2013-03-27 08:25:00,
2013-03-27 04:30:00,42.0,32.0,30.15,NNW,327,2.0,4.0,68,0.00,,,0.00,Meteo,2013-03-27 08:30:00,
2013-03-27 04:35:00,42.0,33.0,30.16,NNW,327,1.0,2.0,69,0.00,,,0.00,Meteo,2013-03-27 08:35:00,
2013-03-27 04:40:00,41.0,32.0,30.16,NNW,346,2.0,4.0,70,0.00,,,0.00,Meteo,2013-03-27 08:40:00,
2013-03-27 04:45:00,41.0,32.0,30.16,NNW,346,2.0,3.0,71,0.00,,,0.00,Meteo,2013-03-27 08:45:00,
2013-03-27 04:50:00,41.0,32.0,30.16,NNW,345,1.0,3.0,71,0.00,,,0.00,Meteo,2013-03-27 08:50:00,
2013-03-27 04:55:00,41.0,33.0,30.16,North,349,1.0,3.0,73,0.00,,,0.00,Meteo,2013-03-27 08:55:00,
2013-03-27 05:00:00,41.0,33.0,30.17,NNW,346,1.0,3.0,73,0.00,,,0.00,Meteo,2013-03-27 09:00:00,
2013-03-27 05:05:00,41.0,33.0,30.17,NNW,348,2.0,4.0,74,0.00,,,0.00,Meteo,2013-03-27 09:05:00,
2013-03-27 05:10:00,41.0,33.0,30.17,NNW,346,1.0,3.0,74,0.00,,,0.00,Meteo,2013-03-27 09:10:00,
2013-03-27 05:15:00,40.0,33.0,30.17,North,0,0.0,0.0,75,0.00,,,0.00,Meteo,2013-03-27 09:15:00,
2013-03-27 05:20:00,40.0,33.0,30.17,North,0,0.0,0.0,75,0.00,,,0.00,Meteo,2013-03-27 09:20:00,
2013-03-27 05:25:00,40.0,33.0,30.17,NNW,344,2.0,5.0,76,0.00,,,0.00,Meteo,2013-03-27 09:25:00,
2013-03-27 05:30:00,40.0,33.0,30.17,North,352,3.0,6.0,77,0.00,,,0.00,Meteo,2013-03-27 09:30:00,
2013-03-27 05:35:00,39.0,32.0,30.17,NNW,348,2.0,3.0,77,0.00,,,0.00,Meteo,2013-03-27 09:35:00,
2013-03-27 05:40:00,39.0,32.0,30.17,North,350,3.0,3.0,77,0.00,,,0.00,Meteo,2013-03-27 09:40:00,
2013-03-27 05:45:00,40.0,33.0,30.17,NNW,344,1.0,2.0,75,0.00,,,0.00,Meteo,2013-03-27 09:45:00,
2013-03-27 05:50:00,40.0,32.0,30.17,NNW,345,1.0,3.0,74,0.00,,,0.00,Meteo,2013-03-27 09:50:00,
2013-03-27 05:55:00,40.0,32.0,30.17,NNW,344,0.0,1.0,74,0.00,,,0.00,Meteo,2013-03-27 09:55:00,
2013-03-27 06:00:00,40.0,32.0,30.17,NNW,345,1.0,3.0,74,0.00,,,0.00,Meteo,2013-03-27 10:00:00,
2013-03-27 06:05:00,40.0,32.0,30.18,NNW,346,3.0,6.0,73,0.00,,,0.00,Meteo,2013-03-27 10:05:00,
2013-03-27 06:10:00,40.0,32.0,30.18,North,349,1.0,3.0,73,0.00,,,0.00,Meteo,2013-03-27 10:10:00,
2013-03-27 06:15:00,40.0,32.0,30.18,North,0,0.0,0.0,74,0.00,,,0.00,Meteo,2013-03-27 10:15:00,
2013-03-27 06:20:00,40.0,33.0,30.18,NNW,348,0.0,1.0,75,0.00,,,0.00,Meteo,2013-03-27 10:20:00,
2013-03-27 06:25:00,39.0,32.0,30.18,North,0,0.0,0.0,75,0.00,,,0.00,Meteo,2013-03-27 10:25:00,
2013-03-27 06:30:00,39.0,32.0,30.18,North,0,0.0,0.0,76,0.00,,,0.00,Meteo,2013-03-27 10:30:00,
2013-03-27 06:35:00,39.0,32.0,30.18,North,0,0.0,0.0,77,0.00,,,0.00,Meteo,2013-03-27 10:35:00,
2013-03-27 06:40:00,38.0,31.0,30.18,NNW,348,0.0,2.0,77,0.00,,,0.00,Meteo,2013-03-27 10:40:00,
2013-03-27 06:45:00,38.0,31.0,30.19,NNW,348,1.0,3.0,77,0.00,,,0.00,Meteo,2013-03-27 10:45:00,
2013-03-27 06:50:00,38.0,32.0,30.19,North,349,0.0,1.0,78,0.00,,,0.00,Meteo,2013-03-27 10:50:00,
2013-03-27 06:55:00,38.0,32.0,30.19,North,0,0.0,0.0,78,0.00,,,0.00,Meteo,2013-03-27 10:55:00,
2013-03-27 07:00:00,37.0,31.0,30.19,North,351,0.0,1.0,79,0.00,,,0.00,Meteo,2013-03-27 11:00:00,
2013-03-27 07:05:00,37.0,31.0,30.19,North,354,0.0,1.0,78,0.00,,,0.00,Meteo,2013-03-27 11:05:00,
2013-03-27 07:10:00,38.0,31.0,30.19,North,351,3.0,5.0,77,0.00,,,0.00,Meteo,2013-03-27 11:10:00,
2013-03-27 07:15:00,38.0,31.0,30.19,North,353,1.0,2.0,75,0.00,,,0.00,Meteo,2013-03-27 11:15:00,
2013-03-27 07:20:00,38.0,31.0,30.20,North,0,0.0,0.0,76,0.00,,,0.00,Meteo,2013-03-27 11:20:00,
2013-03-27 07:25:00,38.0,31.0,30.20,North,350,0.0,2.0,76,0.00,,,0.00,Meteo,2013-03-27 11:25:00,
2013-03-27 07:30:00,38.0,31.0,30.20,North,349,1.0,2.0,76,0.00,,,0.00,Meteo,2013-03-27 11:30:00,
2013-03-27 07:36:00,37.0,30.0,30.21,North,350,1.0,3.0,75,0.00,,,0.00,Meteo,2013-03-27 11:36:00,
2013-03-27 07:41:00,38.0,30.0,30.21,NNW,348,1.0,3.0,74,0.00,,,0.00,Meteo,2013-03-27 11:41:00,
2013-03-27 07:46:00,38.0,29.0,30.22,NNW,347,4.0,7.0,71,0.00,,,0.00,Meteo,2013-03-27 11:46:00,
2013-03-27 07:51:00,39.0,30.0,30.22,NNW,346,1.0,4.0,69,0.00,,,0.00,Meteo,2013-03-27 11:51:00,
2013-03-27 07:56:00,39.0,29.0,30.22,North,351,1.0,2.0,68,0.00,,,0.00,Meteo,2013-03-27 11:56:00,
2013-03-27 08:01:00,40.0,30.0,30.22,NNW,347,4.0,6.0,67,0.00,,,0.00,Meteo,2013-03-27 12:01:00,
2013-03-27 08:06:00,40.0,30.0,30.22,North,350,4.0,7.0,66,0.00,,,0.00,Meteo,2013-03-27 12:06:00,
2013-03-27 08:11:00,41.0,31.0,30.22,NNW,330,3.0,5.0,66,0.00,,,0.00,Meteo,2013-03-27 12:11:00,
2013-03-27 08:16:00,41.0,30.0,30.22,NNW,348,3.0,6.0,65,0.00,,,0.00,Meteo,2013-03-27 12:16:00,
2013-03-27 08:21:00,42.0,30.0,30.22,NNW,348,3.0,6.0,63,0.00,,,0.00,Meteo,2013-03-27 12:21:00,
2013-03-27 08:26:00,42.0,30.0,30.22,North,359,4.0,6.0,63,0.00,,,0.00,Meteo,2013-03-27 12:26:00,
2013-03-27 08:31:00,42.0,30.0,30.23,North,352,7.0,10.0,61,0.00,,,0.00,Meteo,2013-03-27 12:31:00,
2013-03-27 08:36:00,42.0,30.0,30.23,North,352,8.0,12.0,61,0.00,,,0.00,Meteo,2013-03-27 12:36:00,
2013-03-27 08:41:00,43.0,30.0,30.23,NNW,348,5.0,10.0,61,0.00,,,0.00,Meteo,2013-03-27 12:41:00,
2013-03-27 08:46:00,43.0,30.0,30.23,NNW,337,4.0,10.0,59,0.00,,,0.00,Meteo,2013-03-27 12:46:00,
2013-03-27 08:51:00,43.0,30.0,30.23,NNW,347,7.0,12.0,59,0.00,,,0.00,Meteo,2013-03-27 12:51:00,
2013-03-27 08:56:00,44.0,30.0,30.23,NNW,340,3.0,6.0,58,0.00,,,0.00,Meteo,2013-03-27 12:56:00,
2013-03-27 09:01:00,44.0,30.0,30.23,North,355,5.0,8.0,58,0.00,,,0.00,Meteo,2013-03-27 13:01:00,
2013-03-27 09:06:00,44.0,30.0,30.23,NNW,346,2.0,4.0,57,0.00,,,0.00,Meteo,2013-03-27 13:06:00,
2013-03-27 09:11:00,45.0,30.0,30.23,North,355,5.0,10.0,56,0.00,,,0.00,Meteo,2013-03-27 13:11:00,
2013-03-27 09:16:00,45.0,29.0,30.24,NNW,337,3.0,5.0,54,0.00,,,0.00,Meteo,2013-03-27 13:16:00,
2013-03-27 09:21:00,45.0,29.0,30.24,NNW,343,5.0,10.0,53,0.00,,,0.00,Meteo,2013-03-27 13:21:00,
2013-03-27 09:26:00,46.0,29.0,30.24,NNW,347,6.0,9.0,52,0.00,,,0.00,Meteo,2013-03-27 13:26:00,
2013-03-27 09:31:00,46.0,30.0,30.25,NNW,347,3.0,6.0,53,0.00,,,0.00,Meteo,2013-03-27 13:31:00,
2013-03-27 09:36:00,46.0,29.0,30.25,North,351,4.0,7.0,52,0.00,,,0.00,Meteo,2013-03-27 13:36:00,
2013-03-27 09:41:00,46.0,28.0,30.25,North,360,7.0,10.0,50,0.00,,,0.00,Meteo,2013-03-27 13:41:00,
2013-03-27 09:46:00,46.0,28.0,30.25,North,349,6.0,9.0,49,0.00,,,0.00,Meteo,2013-03-27 13:46:00,
2013-03-27 09:51:00,47.0,28.0,30.25,North,357,6.0,10.0,48,0.00,,,0.00,Meteo,2013-03-27 13:51:00,
2013-03-27 09:56:00,47.0,27.0,30.25,North,350,8.0,12.0,46,0.00,,,0.00,Meteo,2013-03-27 13:56:00,
2013-03-27 10:01:00,47.0,27.0,30.25,North,350,6.0,8.0,46,0.00,,,0.00,Meteo,2013-03-27 14:01:00,
2013-03-27 10:06:00,48.0,29.0,30.25,NNW,345,7.0,12.0,47,0.00,,,0.00,Meteo,2013-03-27 14:06:00,
2013-03-27 10:11:00,48.0,28.0,30.25,NNE,15,3.0,8.0,45,0.00,,,0.00,Meteo,2013-03-27 14:11:00,
2013-03-27 10:16:00,48.0,28.0,30.25,North,352,4.0,8.0,46,0.00,,,0.00,Meteo,2013-03-27 14:16:00,
2013-03-27 10:21:00,49.0,29.0,30.25,North,352,3.0,7.0,46,0.00,,,0.00,Meteo,2013-03-27 14:21:00,
2013-03-27 10:26:00,49.0,28.0,30.25,North,349,6.0,8.0,44,0.00,,,0.00,Meteo,2013-03-27 14:26:00,
2013-03-27 10:31:00,49.0,27.0,30.25,NNW,344,4.0,7.0,42,0.00,,,0.00,Meteo,2013-03-27 14:31:00,
2013-03-27 10:36:00,50.0,28.0,30.25,NNW,346,3.0,6.0,43,0.00,,,0.00,Meteo,2013-03-27 14:36:00,
2013-03-27 10:41:00,51.0,29.0,30.25,NNW,329,3.0,7.0,43,0.00,,,0.00,Meteo,2013-03-27 14:41:00,
2013-03-27 10:46:00,51.0,29.0,30.25,NW,318,3.0,7.0,43,0.00,,,0.00,Meteo,2013-03-27 14:46:00,
2013-03-27 10:51:00,51.0,28.0,30.25,North,354,4.0,7.0,41,0.00,,,0.00,Meteo,2013-03-27 14:51:00,
2013-03-27 10:56:00,51.0,28.0,30.25,North,359,5.0,11.0,41,0.00,,,0.00,Meteo,2013-03-27 14:56:00,
2013-03-27 11:01:00,52.0,28.0,30.25,NNW,333,3.0,5.0,39,0.00,,,0.00,Meteo,2013-03-27 15:01:00,
2013-03-27 11:06:00,52.0,28.0,30.25,North,353,4.0,7.0,40,0.00,,,0.00,Meteo,2013-03-27 15:06:00,
2013-03-27 11:11:00,52.0,28.0,30.25,WNW,291,2.0,5.0,39,0.00,,,0.00,Meteo,2013-03-27 15:11:00,
2013-03-27 11:16:00,53.0,29.0,30.25,NNW,348,5.0,7.0,40,0.00,,,0.00,Meteo,2013-03-27 15:16:00,
2013-03-27 11:21:00,53.0,29.0,30.25,NW,316,2.0,4.0,39,0.00,,,0.00,Meteo,2013-03-27 15:21:00,
2013-03-27 11:26:00,53.0,28.0,30.25,North,350,7.0,11.0,38,0.00,,,0.00,Meteo,2013-03-27 15:26:00,
2013-03-27 11:31:00,53.0,29.0,30.25,NW,311,3.0,8.0,39,0.00,,,0.00,Meteo,2013-03-27 15:31:00,
2013-03-27 11:36:00,54.0,30.0,30.25,NW,306,3.0,5.0,39,0.00,,,0.00,Meteo,2013-03-27 15:36:00,
2013-03-27 11:41:00,55.0,29.0,30.25,NNW,340,2.0,3.0,36,0.00,,,0.00,Meteo,2013-03-27 15:41:00,
2013-03-27 11:46:00,55.0,29.0,30.25,NNW,328,3.0,7.0,36,0.00,,,0.00,Meteo,2013-03-27 15:46:00,
2013-03-27 11:51:00,55.0,28.0,30.25,North,351,1.0,2.0,35,0.00,,,0.00,Meteo,2013-03-27 15:51:00,
2013-03-27 11:56:00,55.0,29.0,30.25,North,353,2.0,3.0,37,0.00,,,0.00,Meteo,2013-03-27 15:56:00,
2013-03-27 12:01:00,55.0,29.0,30.25,NNW,340,3.0,5.0,37,0.00,,,0.00,Meteo,2013-03-27 16:01:00,
2013-03-27 12:06:00,56.0,29.0,30.25,NNW,346,3.0,8.0,36,0.00,,,0.00,Meteo,2013-03-27 16:06:00,
2013-03-27 12:11:00,57.0,30.0,30.25,NW,309,3.0,4.0,36,0.00,,,0.00,Meteo,2013-03-27 16:11:00,
2013-03-27 12:16:00,57.0,30.0,30.24,West,264,3.0,6.0,35,0.00,,,0.00,Meteo,2013-03-27 16:16:00,
2013-03-27 12:21:00,57.0,30.0,30.24,North,355,5.0,7.0,35,0.00,,,0.00,Meteo,2013-03-27 16:21:00,
2013-03-27 12:26:00,56.0,29.0,30.24,NNW,342,3.0,7.0,36,0.00,,,0.00,Meteo,2013-03-27 16:26:00,
2013-03-27 12:31:00,56.0,29.0,30.24,NNW,337,1.0,3.0,36,0.00,,,0.00,Meteo,2013-03-27 16:31:00,
2013-03-27 12:36:00,56.0,29.0,30.24,SSW,200,1.0,3.0,36,0.00,,,0.00,Meteo,2013-03-27 16:36:00,
2013-03-27 12:41:00,57.0,29.0,30.24,NNW,348,7.0,12.0,34,0.00,,,0.00,Meteo,2013-03-27 16:41:00,
2013-03-27 12:46:00,57.0,28.0,30.23,WNW,288,2.0,4.0,33,0.00,,,0.00,Meteo,2013-03-27 16:46:00,
2013-03-27 12:51:00,58.0,30.0,30.23,NW,316,3.0,5.0,34,0.00,,,0.00,Meteo,2013-03-27 16:51:00,
2013-03-27 12:56:00,59.0,28.0,30.23,WNW,291,2.0,3.0,31,0.00,,,0.00,Meteo,2013-03-27 16:56:00,
2013-03-27 13:01:00,59.0,30.0,30.22,South,190,2.0,3.0,33,0.00,,,0.00,Meteo,2013-03-27 17:01:00,
2013-03-27 13:06:00,60.0,32.0,30.22,SSW,200,2.0,6.0,35,0.00,,,0.00,Meteo,2013-03-27 17:06:00,
2013-03-27 13:11:00,59.0,30.0,30.22,North,353,5.0,8.0,33,0.00,,,0.00,Meteo,2013-03-27 17:11:00,
2013-03-27 13:16:00,59.0,29.0,30.22,WNW,285,4.0,6.0,32,0.00,,,0.00,Meteo,2013-03-27 17:16:00,
2013-03-27 13:21:00,60.0,28.0,30.22,WNW,294,2.0,3.0,29,0.00,,,0.00,Meteo,2013-03-27 17:21:00,
2013-03-27 13:26:00,60.0,29.0,30.22,NNW,341,7.0,11.0,31,0.00,,,0.00,Meteo,2013-03-27 17:26:00,
2013-03-27 13:31:00,60.0,30.0,30.22,West,279,4.0,9.0,32,0.00,,,0.00,Meteo,2013-03-27 17:31:00,
2013-03-27 13:36:00,60.0,29.0,30.22,West,259,2.0,5.0,31,0.00,,,0.00,Meteo,2013-03-27 17:36:00,
2013-03-27 13:41:00,60.0,30.0,30.22,WNW,291,8.0,11.0,32,0.00,,,0.00,Meteo,2013-03-27 17:41:00,
2013-03-27 13:46:00,60.0,29.0,30.21,NNW,329,1.0,2.0,30,0.00,,,0.00,Meteo,2013-03-27 17:46:00,
2013-03-27 13:51:00,60.0,29.0,30.21,NNW,336,5.0,8.0,30,0.00,,,0.00,Meteo,2013-03-27 17:51:00,
2013-03-27 13:56:00,60.0,29.0,30.21,WNW,298,6.0,11.0,31,0.00,,,0.00,Meteo,2013-03-27 17:56:00,
2013-03-27 14:01:00,60.0,29.0,30.21,West,259,2.0,4.0,31,0.00,,,0.00,Meteo,2013-03-27 18:01:00,
2013-03-27 14:06:00,60.0,29.0,30.20,NNW,332,3.0,5.0,31,0.00,,,0.00,Meteo,2013-03-27 18:06:00,
2013-03-27 14:11:00,61.0,30.0,30.20,WSW,256,7.0,13.0,31,0.00,,,0.00,Meteo,2013-03-27 18:11:00,
2013-03-27 14:16:00,61.0,29.0,30.20,WNW,293,5.0,11.0,29,0.00,,,0.00,Meteo,2013-03-27 18:16:00,
2013-03-27 14:21:00,62.0,30.0,30.20,SW,235,5.0,8.0,30,0.00,,,0.00,Meteo,2013-03-27 18:21:00,
2013-03-27 14:26:00,61.0,30.0,30.20,WSW,252,3.0,6.0,31,0.00,,,0.00,Meteo,2013-03-27 18:26:00,
2013-03-27 14:31:00,62.0,29.0,30.19,West,274,9.0,13.0,28,0.00,,,0.00,Meteo,2013-03-27 18:31:00,
2013-03-27 14:36:00,62.0,29.0,30.19,WNW,300,7.0,12.0,29,0.00,,,0.00,Meteo,2013-03-27 18:36:00,
2013-03-27 14:41:00,62.0,29.0,30.19,West,261,3.0,6.0,28,0.00,,,0.00,Meteo,2013-03-27 18:41:00,
2013-03-27 14:46:00,62.0,29.0,30.18,WNW,288,6.0,10.0,29,0.00,,,0.00,Meteo,2013-03-27 18:46:00,
2013-03-27 14:51:00,62.0,29.0,30.18,WNW,295,7.0,16.0,29,0.00,,,0.00,Meteo,2013-03-27 18:51:00,
2013-03-27 14:56:00,62.0,29.0,30.18,NNW,329,5.0,11.0,29,0.00,,,0.00,Meteo,2013-03-27 18:56:00,
2013-03-27 15:01:00,62.0,29.0,30.18,West,278,4.0,8.0,29,0.00,,,0.00,Meteo,2013-03-27 19:01:00,
2013-03-27 15:06:00,62.0,29.0,30.18,West,264,9.0,12.0,29,0.00,,,0.00,Meteo,2013-03-27 19:06:00,
2013-03-27 15:11:00,62.0,29.0,30.18,West,271,2.0,10.0,29,0.00,,,0.00,Meteo,2013-03-27 19:11:00,
2013-03-27 15:16:00,62.0,28.0,30.17,NW,314,3.0,6.0,27,0.00,,,0.00,Meteo,2013-03-27 19:16:00,
2013-03-27 15:21:00,62.0,28.0,30.17,NNW,345,6.0,8.0,27,0.00,,,0.00,Meteo,2013-03-27 19:21:00,
2013-03-27 15:26:00,62.0,29.0,30.17,WSW,241,6.0,10.0,28,0.00,,,0.00,Meteo,2013-03-27 19:26:00,
2013-03-27 15:31:00,62.0,27.0,30.16,NW,325,4.0,6.0,26,0.00,,,0.00,Meteo,2013-03-27 19:31:00,
2013-03-27 15:36:00,62.0,28.0,30.16,West,280,11.0,14.0,27,0.00,,,0.00,Meteo,2013-03-27 19:36:00,
2013-03-27 15:41:00,62.0,28.0,30.16,West,274,6.0,8.0,27,0.00,,,0.00,Meteo,2013-03-27 19:41:00,
2013-03-27 15:46:00,63.0,27.0,30.15,NNW,347,3.0,6.0,25,0.00,,,0.00,Meteo,2013-03-27 19:46:00,
2013-03-27 15:51:00,63.0,27.0,30.15,North,350,7.0,8.0,25,0.00,,,0.00,Meteo,2013-03-27 19:51:00,
2013-03-27 15:56:00,62.0,26.0,30.15,WNW,294,3.0,6.0,25,0.00,,,0.00,Meteo,2013-03-27 19:56:00,
2013-03-27 16:01:00,62.0,27.0,30.15,NW,310,4.0,7.0,26,0.00,,,0.00,Meteo,2013-03-27 20:01:00,
2013-03-27 16:06:00,62.0,26.0,30.15,NW,318,1.0,2.0,25,0.00,,,0.00,Meteo,2013-03-27 20:06:00,
2013-03-27 16:11:00,62.0,26.0,30.15,West,263,1.0,5.0,25,0.00,,,0.00,Meteo,2013-03-27 20:11:00,
2013-03-27 16:16:00,62.0,28.0,30.15,WNW,296,4.0,8.0,27,0.00,,,0.00,Meteo,2013-03-27 20:16:00,
2013-03-27 16:21:00,62.0,27.0,30.15,West,281,6.0,11.0,26,0.00,,,0.00,Meteo,2013-03-27 20:21:00,
2013-03-27 16:26:00,62.0,26.0,30.15,NNW,330,5.0,14.0,25,0.00,,,0.00,Meteo,2013-03-27 20:26:00,
2013-03-27 16:31:00,62.0,27.0,30.15,WNW,287,4.0,7.0,26,0.00,,,0.00,Meteo,2013-03-27 20:31:00,
2013-03-27 16:36:00,62.0,27.0,30.14,West,267,5.0,8.0,26,0.00,,,0.00,Meteo,2013-03-27 20:36:00,
2013-03-27 16:41:00,62.0,27.0,30.14,NNW,336,6.0,11.0,26,0.00,,,0.00,Meteo,2013-03-27 20:41:00,
2013-03-27 16:46:00,62.0,26.0,30.14,NW,324,3.0,7.0,25,0.00,,,0.00,Meteo,2013-03-27 20:46:00,
2013-03-27 16:51:00,62.0,27.0,30.15,North,357,4.0,7.0,26,0.00,,,0.00,Meteo,2013-03-27 20:51:00,
2013-03-27 16:56:00,62.0,26.0,30.15,NNW,329,4.0,8.0,25,0.00,,,0.00,Meteo,2013-03-27 20:56:00,
2013-03-27 17:01:00,62.0,27.0,30.14,NW,316,1.0,3.0,26,0.00,,,0.00,Meteo,2013-03-27 21:01:00,
2013-03-27 17:06:00,62.0,27.0,30.14,WSW,258,5.0,8.0,26,0.00,,,0.00,Meteo,2013-03-27 21:06:00,
2013-03-27 17:11:00,62.0,27.0,30.14,WNW,295,4.0,9.0,26,0.00,,,0.00,Meteo,2013-03-27 21:11:00,
2013-03-27 17:16:00,62.0,26.0,30.15,West,266,6.0,10.0,25,0.00,,,0.00,Meteo,2013-03-27 21:16:00,
2013-03-27 17:21:00,62.0,26.0,30.15,WSW,251,5.0,8.0,25,0.00,,,0.00,Meteo,2013-03-27 21:21:00,
2013-03-27 17:26:00,62.0,26.0,30.15,WNW,287,5.0,7.0,25,0.00,,,0.00,Meteo,2013-03-27 21:26:00,
2013-03-27 17:32:00,62.0,27.0,30.15,West,281,3.0,7.0,26,0.00,,,0.00,Meteo,2013-03-27 21:32:00,
2013-03-27 17:37:00,62.0,27.0,30.15,North,353,3.0,7.0,26,0.00,,,0.00,Meteo,2013-03-27 21:37:00,
2013-03-27 17:42:00,62.0,27.0,30.15,WNW,292,4.0,7.0,26,0.00,,,0.00,Meteo,2013-03-27 21:42:00,
2013-03-27 17:47:00,62.0,27.0,30.15,NW,321,3.0,6.0,26,0.00,,,0.00,Meteo,2013-03-27 21:47:00,
2013-03-27 17:53:00,62.0,27.0,30.15,WNW,303,4.0,8.0,26,0.00,,,0.00,Meteo,2013-03-27 21:53:00,
2013-03-27 17:58:00,62.0,27.0,30.15,West,281,2.0,6.0,26,0.00,,,0.00,Meteo,2013-03-27 21:58:00,
2013-03-27 18:03:00,62.0,26.0,30.15,NNW,329,3.0,5.0,25,0.00,,,0.00,Meteo,2013-03-27 22:03:00,
2013-03-27 18:08:00,61.0,26.0,30.15,North,353,0.0,2.0,26,0.00,,,0.00,Meteo,2013-03-27 22:08:00,
2013-03-27 18:13:00,61.0,26.0,30.15,NNW,341,2.0,7.0,26,0.00,,,0.00,Meteo,2013-03-27 22:13:00,
2013-03-27 18:18:00,61.0,27.0,30.15,NNW,332,1.0,5.0,27,0.00,,,0.00,Meteo,2013-03-27 22:18:00,
2013-03-27 18:23:00,61.0,26.0,30.15,West,276,3.0,6.0,26,0.00,,,0.00,Meteo,2013-03-27 22:23:00,
2013-03-27 18:28:00,61.0,25.0,30.15,NNW,346,1.0,3.0,25,0.00,,,0.00,Meteo,2013-03-27 22:28:00,
2013-03-27 18:33:00,61.0,26.0,30.15,WSW,253,3.0,7.0,26,0.00,,,0.00,Meteo,2013-03-27 22:33:00,
2013-03-27 18:38:00,61.0,26.0,30.15,WNW,290,1.0,2.0,26,0.00,,,0.00,Meteo,2013-03-27 22:38:00,
2013-03-27 18:43:00,61.0,26.0,30.15,NW,311,1.0,5.0,26,0.00,,,0.00,Meteo,2013-03-27 22:43:00,
2013-03-27 18:48:00,60.0,24.0,30.15,NW,312,1.0,2.0,25,0.00,,,0.00,Meteo,2013-03-27 22:48:00,
2013-03-27 18:53:00,60.0,25.0,30.15,WNW,290,2.0,6.0,26,0.00,,,0.00,Meteo,2013-03-27 22:53:00,
2013-03-27 18:58:00,60.0,24.0,30.15,WNW,293,3.0,6.0,25,0.00,,,0.00,Meteo,2013-03-27 22:58:00,
2013-03-27 19:03:00,60.0,25.0,30.15,WNW,295,1.0,2.0,26,0.00,,,0.00,Meteo,2013-03-27 23:03:00,
2013-03-27 19:08:00,60.0,26.0,30.15,NW,319,2.0,6.0,27,0.00,,,0.00,Meteo,2013-03-27 23:08:00,
2013-03-27 19:13:00,60.0,25.0,30.15,NW,315,1.0,1.0,26,0.00,,,0.00,Meteo,2013-03-27 23:13:00,
2013-03-27 19:18:00,60.0,29.0,30.15,West,281,4.0,8.0,30,0.00,,,0.00,Meteo,2013-03-27 23:18:00,
2013-03-27 19:23:00,59.0,26.0,30.15,NW,309,1.0,2.0,28,0.00,,,0.00,Meteo,2013-03-27 23:23:00,
2013-03-27 19:28:00,59.0,26.0,30.15,NW,311,0.0,1.0,28,0.00,,,0.00,Meteo,2013-03-27 23:28:00,
2013-03-27 19:33:00,59.0,27.0,30.15,North,0,0.0,0.0,29,0.00,,,0.00,Meteo,2013-03-27 23:33:00,
2013-03-27 19:38:00,58.0,29.0,30.15,North,0,0.0,0.0,33,0.00,,,0.00,Meteo,2013-03-27 23:38:00,
2013-03-27 19:43:00,58.0,29.0,30.15,WNW,297,0.0,1.0,33,0.00,,,0.00,Meteo,2013-03-27 23:43:00,
2013-03-27 19:48:00,57.0,29.0,30.15,WNW,298,1.0,1.0,34,0.00,,,0.00,Meteo,2013-03-27 23:48:00,
2013-03-27 19:53:00,56.0,31.0,30.15,WNW,297,0.0,1.0,38,0.00,,,0.00,Meteo,2013-03-27 23:53:00,
2013-03-27 19:58:00,56.0,33.0,30.15,North,0,0.0,0.0,41,0.00,,,0.00,Meteo,2013-03-27 23:58:00,
2013-03-27 20:03:00,55.0,32.0,30.16,WNW,298,1.0,2.0,42,0.00,,,0.00,Meteo,2013-03-28 00:03:00,
2013-03-27 20:09:00,53.0,33.0,30.16,East,84,1.0,2.0,47,0.00,,,0.00,Meteo,2013-03-28 00:09:00,
2013-03-27 20:14:00,53.0,36.0,30.16,East,96,1.0,3.0,52,0.00,,,0.00,Meteo,2013-03-28 00:14:00,
2013-03-27 20:19:00,52.0,38.0,30.17,East,88,0.0,1.0,58,0.00,,,0.00,Meteo,2013-03-28 00:19:00,
2013-03-27 20:25:00,52.0,39.0,30.17,East,85,1.0,2.0,61,0.00,,,0.00,Meteo,2013-03-28 00:25:00,
2013-03-27 20:30:00,52.0,40.0,30.17,ENE,73,0.0,1.0,63,0.00,,,0.00,Meteo,2013-03-28 00:30:00,
2013-03-27 20:35:00,51.0,39.0,30.17,ENE,75,0.0,1.0,64,0.00,,,0.00,Meteo,2013-03-28 00:35:00,
2013-03-27 20:40:00,51.0,39.0,30.17,ENE,75,0.0,1.0,64,0.00,,,0.00,Meteo,2013-03-28 00:40:00,
2013-03-27 20:45:00,51.0,40.0,30.17,ENE,75,1.0,2.0,66,0.00,,,0.00,Meteo,2013-03-28 00:45:00,
2013-03-27 20:50:00,50.0,39.0,30.17,ENE,75,0.0,1.0,67,0.00,,,0.00,Meteo,2013-03-28 00:50:00,
2013-03-27 20:55:00,50.0,39.0,30.17,ENE,74,1.0,2.0,67,0.00,,,0.00,Meteo,2013-03-28 00:55:00,
2013-03-27 21:00:00,50.0,40.0,30.17,ENE,75,0.0,2.0,68,0.00,,,0.00,Meteo,2013-03-28 01:00:00,
2013-03-27 21:05:00,49.0,39.0,30.17,ENE,74,1.0,2.0,69,0.00,,,0.00,Meteo,2013-03-28 01:05:00,
2013-03-27 21:11:00,49.0,40.0,30.17,ENE,74,0.0,2.0,70,0.00,,,0.00,Meteo,2013-03-28 01:11:00,
2013-03-27 21:16:00,49.0,40.0,30.18,ENE,74,0.0,2.0,71,0.00,,,0.00,Meteo,2013-03-28 01:16:00,
2013-03-27 21:21:00,49.0,40.0,30.18,ENE,75,0.0,1.0,72,0.00,,,0.00,Meteo,2013-03-28 01:21:00,
2013-03-27 21:26:00,48.0,40.0,30.18,ENE,73,0.0,2.0,73,0.00,,,0.00,Meteo,2013-03-28 01:26:00,
2013-03-27 21:31:00,48.0,40.0,30.19,ENE,67,0.0,1.0,74,0.00,,,0.00,Meteo,2013-03-28 01:31:00,
2013-03-27 21:36:00,48.0,40.0,30.19,North,0,0.0,0.0,75,0.00,,,0.00,Meteo,2013-03-28 01:36:00,
2013-03-27 21:41:00,48.0,41.0,30.19,North,0,0.0,0.0,76,0.00,,,0.00,Meteo,2013-03-28 01:41:00,
2013-03-27 21:46:00,47.0,40.0,30.19,ENE,67,0.0,1.0,76,0.00,,,0.00,Meteo,2013-03-28 01:46:00,
2013-03-27 21:51:00,47.0,40.0,30.19,North,0,0.0,0.0,77,0.00,,,0.00,Meteo,2013-03-28 01:51:00,
2013-03-27 21:56:00,47.0,41.0,30.19,North,0,0.0,0.0,78,0.00,,,0.00,Meteo,2013-03-28 01:56:00,
2013-03-27 22:01:00,46.0,40.0,30.19,ENE,65,0.0,1.0,79,0.00,,,0.00,Meteo,2013-03-28 02:01:00,
2013-03-27 22:06:00,46.0,40.0,30.19,ENE,67,0.0,1.0,80,0.00,,,0.00,Meteo,2013-03-28 02:06:00,
2013-03-27 22:11:00,46.0,40.0,30.19,North,0,0.0,0.0,80,0.00,,,0.00,Meteo,2013-03-28 02:11:00,
2013-03-27 22:16:00,46.0,41.0,30.20,North,0,0.0,0.0,81,0.00,,,0.00,Meteo,2013-03-28 02:16:00,
2013-03-27 22:21:00,45.0,40.0,30.20,North,0,0.0,0.0,81,0.00,,,0.00,Meteo,2013-03-28 02:21:00,
2013-03-27 22:26:00,45.0,40.0,30.20,North,0,0.0,0.0,82,0.00,,,0.00,Meteo,2013-03-28 02:26:00,
2013-03-27 22:31:00,45.0,40.0,30.20,North,0,0.0,0.0,83,0.00,,,0.00,Meteo,2013-03-28 02:31:00,
2013-03-27 22:36:00,45.0,40.0,30.20,North,0,0.0,0.0,83,0.00,,,0.00,Meteo,2013-03-28 02:36:00,
2013-03-27 22:41:00,45.0,40.0,30.20,ENE,67,1.0,1.0,83,0.00,,,0.00,Meteo,2013-03-28 02:41:00,
2013-03-27 22:46:00,45.0,40.0,30.21,ENE,66,1.0,2.0,84,0.00,,,0.00,Meteo,2013-03-28 02:46:00,
2013-03-27 22:51:00,45.0,40.0,30.21,North,0,0.0,0.0,84,0.00,,,0.00,Meteo,2013-03-28 02:51:00,
2013-03-27 22:56:00,45.0,40.0,30.21,North,0,0.0,0.0,84,0.00,,,0.00,Meteo,2013-03-28 02:56:00,
2013-03-27 23:01:00,45.0,41.0,30.20,North,0,0.0,0.0,85,0.00,,,0.00,Meteo,2013-03-28 03:01:00,
2013-03-27 23:06:00,44.0,40.0,30.20,North,0,0.0,0.0,85,0.00,,,0.00,Meteo,2013-03-28 03:06:00,
2013-03-27 23:11:00,44.0,40.0,30.20,North,0,0.0,0.0,85,0.00,,,0.00,Meteo,2013-03-28 03:11:00,
2013-03-27 23:16:00,44.0,40.0,30.21,North,0,0.0,0.0,85,0.00,,,0.00,Meteo,2013-03-28 03:16:00,
2013-03-27 23:21:00,44.0,40.0,30.21,North,0,0.0,0.0,86,0.00,,,0.00,Meteo,2013-03-28 03:21:00,
2013-03-27 23:26:00,44.0,40.0,30.21,North,0,0.0,0.0,86,0.00,,,0.00,Meteo,2013-03-28 03:26:00,
2013-03-27 23:31:00,44.0,40.0,30.21,North,0,0.0,0.0,86,0.00,,,0.00,Meteo,2013-03-28 03:31:00,
2013-03-27 23:36:00,44.0,40.0,30.21,North,0,0.0,0.0,87,0.00,,,0.00,Meteo,2013-03-28 03:36:00,
2013-03-27 23:41:00,43.0,39.0,30.21,ENE,65,0.0,1.0,87,0.00,,,0.00,Meteo,2013-03-28 03:41:00,
2013-03-27 23:46:00,43.0,40.0,30.21,North,0,0.0,0.0,88,0.00,,,0.00,Meteo,2013-03-28 03:46:00,
2013-03-27 23:51:00,43.0,40.0,30.21,North,0,0.0,0.0,88,0.00,,,0.00,Meteo,2013-03-28 03:51:00,
2013-03-27 23:56:00,43.0,40.0,30.21,North,0,0.0,0.0,88,0.00,,,0.00,Meteo,2013-03-28 03:56:00,